Temperature
20 21 20 20 20 20 20 20 20 19 19 19 19 19 19 19 19 19 19 19 19 19 19 19 19 19 19 19 19 19 19 19 19 19 19 19 19 19 19 19 18 18 19
20 21 20 20 20 20 20 20 19 19 19 19 19 19 19 19 19 19 19 19 19 19 19 19 19 19 19 19 19 19 19 19 19 19 19 19 19 19 19 19 18 19 19
20 21 20 20 20 20 20 20 20 19 19 19 19 19 19 19 19 19 19 19 19 19 19 19 19 19 19 19 19 19 19 19 19 19 19 18 19 19 19 19 19 19 19
20 21 20 20 20 20 20 20 20 19 19 19 19 19 19 19 19 19 19 19 19 19 19 19 19 19 19 19 19 19 19 19 19 18 18 18 18 19 19 19 19 19 19
20 20 20 20 20 20 20 20 19 19 19 19 19 19 19 19 19 19 19 19 19 19 19 18 18 19 19 19 19 19 19 19 19 18 18 18 18 19 19 19 19 19 19
20 20 20 20 20 20 20 20 19 19 19 19 19 19 19 19 19 19 19 19 19 19 18 18 18 18 18 19 19 19 19 19 19 18 18 18 18 19 19 19 18 19 19
20 20 20 20 20 20 20 19 19 19 19 19 19 19 19 19 19 19 19 19 19 19 18 18 18 18 18 18 18 19 19 19 18 18 18 18 18 18 19 18 18 18 18
20 20 20 20 20 20 19 19 19 19 19 19 18 18 18 18 19 19 19 19 19 19 19 18 18 18 18 18 18 19 19 18 18 18 18 18 18 18 18 18 18 18 18
21 20 20 20 20 20 19 19 19 19 19 18 18 18 18 18 18 19 19 19 19 19 19 18 18 18 18 18 18 19 19 18 18 18 18 18 18 18 18 18 18 18 18
21 20 20 19 20 20 20 19 19 19 19 18 18 18 18 18 19 18 19 19 19 19 19 18 18 18 18 18 18 18 18 18 18 18 18 18 18 18 18 18 18 18 18
22 21 20 19 19 19 19 19 19 19 19 18 18 18 18 18 18 18 18 19 19 19 19 18 18 18 18 18 18 18 18 18 18 18 18 18 18 18 18 18 18 18 18
23 22 21 20 19 19 19 19 19 19 19 19 18 18 18 18 17 17 18 18 19 19 19 19 18 18 18 18 18 18 18 18 18 18 18 18 18 18 18 18 18 18 18
23 23 22 21 20 19 19 19 19 18 18 18 18 18 18 18 18 18 18 18 19 19 18 18 18 18 18 18 18 19 18 18 18 18 18 18 18 18 18 18 18 18 18
24 23 22 22 21 20 20 19 19 19 19 18 18 18 18 18 18 18 18 18 18 18 18 18 18 19 19 19 19 19 19 18 18 18 17 17 18 18 18 18 18 18 18
24 23 23 22 22 21 20 20 19 19 19 19 18 18 18 18 19 19 18 18 18 18 18 18 18 19 19 19 19 19 18 18 18 17 17 17 17 17 18 18 18 18 17
24 23 23 22 22 22 21 20 20 20 19 19 19 19 19 19 19 19 19 19 18 18 18 18 19 19 19 18 18 18 18 18 17 17 17 17 17 17 17 17 17 17 17
25 24 23 23 22 22 22 21 20 20 20 19 19 19 19 19 19 19 19 19 19 18 19 19 19 19 18 18 18 18 18 18 17 17 17 17 17 17 17 17 17 17 17
24 24 24 23 22 22 22 21 21 20 20 20 19 19 19 19 19 19 19 19 18 18 19 19 19 18 18 18 18 18 18 18 18 17 17 17 16 16 17 17 17 17 17
24 24 24 23 23 22 22 21 21 20 20 20 19 19 19 19 19 19 19 19 18 18 18 18 18 18 18 18 18 18 18 18 18 17 17 17 17 17 16 17 17 17 17
22 23 23 23 23 22 22 21 21 20 20 20 19 19 19 19 19 19 18 18 18 18 18 18 18 18 18 18 18 18 18 17 17 17 17 17 17 17 16 16 16 17 17
21 21 22 22 22 22 22 21 21 20 20 20 19 19 19 19 19 18 18 18 18 18 18 17 18 17 17 17 17 17 17 17 17 17 17 17 17 17 17 16 16 16 16
19 20 20 21 22 22 22 21 20 20 20 19 19 19 19 18 18 18 18 18 18 17 17 17 17 17 17 17 17 17 17 17 17 17 17 17 17 17 17 17 16 16 16
18 18 19 20 21 21 21 21 20 20 19 19 19 19 18 18 18 18 17 17 17 17 17 17 17 17 17 17 17 17 17 17 17 17 17 17 17 17 17 17 17 17 16
17 17 18 19 20 20 20 20 20 20 19 19 19 19 18 18 17 17 17 17 17 17 17 17 17 17 17 16 17 16 16 17 17 17 17 17 17 17 17 17 17 17 16
16 16 17 18 18 19 20 20 19 19 19 18 18 18 17 17 17 17 17 17 17 17 16 16 16 16 16 16 16 16 16 16 16 16 17 17 17 17 17 17 17 17 16
15 16 16 17 17 18 18 19 19 18 18 18 17 17 17 17 16 16 16 16 16 16 16 16 16 16 16 16 16 16 16 16 16 16 16 16 17 17 17 17 16 16 16
Wind_Speed
13 16 16 15 14 13 13 13 13 13 13 12 12 12 12 12 11 11 10 10 9 9 8 7 7 6 6 6 6 6 6 6 6 6 6 6 6 6 6 6 5 6 8
17 18 17 16 14 13 13 12 12 12 12 12 12 12 12 11 11 11 10 10 9 9 8 8 7 7 7 7 6 6 6 6 5 4 4 5 6 7 7 8 10 8 7
18 18 17 16 15 13 12 12 12 12 12 12 11 11 11 11 11 10 10 10 9 9 9 8 8 7 7 6 6 6 6 5 3 2 1 4 7 7 7 8 8 8 7
18 17 16 16 15 13 12 11 11 11 11 11 11 11 11 11 11 10 10 10 10 9 9 9 8 8 7 6 6 5 5 3 2 2 3 6 8 8 8 8 8 8 8
17 17 18 16 14 13 12 11 11 11 11 11 11 10 10 10 10 10 10 10 10 9 9 9 8 7 6 6 5 5 3 1 1 2 8 11 10 7 7 7 8 8 8
16 18 18 16 14 13 11 11 11 11 11 10 10 10 10 10 10 10 10 10 10 9 9 8 8 7 6 6 5 4 3 1 2 3 8 11 9 7 7 7 8 8 8
16 17 17 16 14 12 11 11 10 10 10 10 10 9 9 9 9 9 9 9 9 9 8 8 7 7 6 6 5 3 1 1 3 4 9 11 7 6 7 7 7 8 8
16 16 17 15 14 12 11 11 10 10 10 9 9 9 9 9 9 8 8 8 8 7 7 6 6 6 6 5 4 2 1 4 2 6 10 10 7 7 6 6 7 7 8
16 16 15 15 13 12 11 10 10 10 10 9 9 9 8 8 8 8 8 8 7 6 5 5 5 5 5 5 3 0 2 5 3 5 10 9 7 7 6 6 6 7 7
15 15 15 16 15 14 12 11 10 10 10 9 9 9 9 9 9 9 9 8 6 5 4 3 3 3 4 4 2 2 4 6 2 11 12 9 8 7 6 6 6 6 6
12 13 13 14 13 14 15 14 12 11 10 10 10 10 10 11 12 11 10 10 7 5 4 3 3 4 5 5 5 6 6 6 5 12 12 10 8 7 6 6 6 6 6
11 12 12 12 11 11 11 14 12 12 12 11 11 12 12 13 11 11 14 11 8 7 6 6 7 7 8 8 9 9 7 6 5 12 11 10 8 6 6 6 6 6 5
10 10 12 12 11 8 6 10 8 9 10 12 12 14 12 10 10 12 11 9 9 9 9 9 9 10 11 9 8 7 1 4 9 12 11 10 7 6 6 6 6 6 5
10 9 9 12 12 10 8 7 7 6 7 7 10 13 10 4 4 8 8 11 11 10 9 9 8 9 6 6 5 4 5 4 9 12 10 9 7 6 6 6 6 5 5
9 10 8 9 12 12 10 7 7 6 7 9 10 12 11 4 4 3 4 7 8 8 6 3 4 2 1 3 4 5 4 6 8 12 11 9 7 6 5 5 5 6 5
8 10 9 9 8 9 9 9 7 6 6 7 8 10 12 8 4 3 3 3 3 4 7 5 3 3 1 3 4 4 3 5 6 10 12 10 8 7 6 5 5 5 5
6 8 9 9 9 9 9 9 6 5 7 5 6 9 11 10 6 4 3 4 3 4 5 2 2 2 3 4 3 1 2 3 3 8 12 12 10 8 7 6 6 5 4
2 3 7 8 8 9 7 8 6 5 5 5 7 7 8 10 8 5 3 3 4 4 1 2 2 1 2 2 2 1 3 2 1 4 8 11 12 11 9 8 7 6 5
8 5 3 7 7 6 7 7 6 5 5 4 6 5 5 6 7 5 4 2 3 2 2 2 2 1 1 1 2 1 1 2 2 2 4 9 12 13 12 10 9 7 6
11 10 6 3 7 7 5 6 6 4 5 5 4 4 5 3 5 5 3 2 1 3 2 1 0 1 1 0 1 1 1 1 2 1 1 3 7 12 13 13 11 9 8
11 11 9 6 4 5 5 5 6 6 4 5 4 5 5 3 3 4 3 3 2 2 2 1 1 0 0 0 1 2 2 3 4 4 2 2 3 8 10 12 12 12 10
12 12 12 10 7 4 4 7 6 6 5 4 4 5 5 5 3 2 3 2 2 2 1 2 2 1 1 1 2 1 2 3 4 4 4 3 3 5 6 10 12 12 12
12 12 11 11 9 6 4 4 6 5 4 3 4 4 4 4 3 2 2 2 3 3 3 5 5 5 4 4 3 3 3 4 3 3 5 5 5 4 4 5 10 14 14
12 12 11 11 10 7 3 5 6 6 6 5 4 4 4 3 3 2 1 1 2 3 5 6 7 6 6 6 4 4 5 3 3 2 2 3 6 6 5 3 3 6 12
13 12 11 10 10 8 4 1 4 5 5 5 5 6 5 4 2 2 2 1 2 3 5 6 6 6 6 7 6 4 5 4 4 3 3 3 2 2 3 3 3 4 8
12 12 11 10 10 9 5 3 5 7 8 8 7 6 4 3 2 1 2 2 3 4 5 6 6 6 6 6 6 5 4 3 4 4 4 4 3 3 3 3 3 4 8
Wind_Direction
129 133 139 134 128 122 118 115 113 111 108 105 102 99 95 92 89 88 87 85 86 88 89 91 94 95 91 90 90 84 79 78 78 78 78 74 69 62 53 40 29 79 84
130 133 141 136 132 128 124 121 118 115 113 110 106 103 99 96 92 90 89 87 87 89 90 90 91 94 94 93 94 91 85 82 82 89 99 95 81 68 58 48 52 74 80
127 133 141 139 137 134 131 128 126 122 119 116 112 108 104 101 96 92 90 88 88 90 90 89 89 90 94 97 97 93 89 87 82 69 56 101 98 75 65 60 61 68 73
128 139 142 142 141 139 137 135 132 129 126 123 119 115 110 105 101 97 92 88 87 87 87 87 88 88 90 94 99 98 94 88 53 4 42 76 81 74 68 66 68 69 72
133 139 135 145 144 144 144 142 139 136 134 130 126 122 117 112 107 102 96 91 88 86 85 85 86 86 89 94 101 106 112 106 359 24 71 81 75 72 71 72 74 75 77
132 131 139 147 148 149 150 149 146 144 142 139 134 128 124 119 113 108 103 97 91 87 84 83 83 85 89 94 99 107 120 169 284 80 89 93 86 79 78 80 81 80 81
135 133 145 149 152 155 156 155 154 152 150 148 142 136 132 127 121 116 110 103 96 89 84 81 80 81 87 93 97 103 118 272 256 114 105 99 102 99 93 91 89 87 85
138 139 145 153 157 160 162 161 160 159 158 155 149 145 141 135 129 124 118 111 104 97 89 83 79 81 87 95 96 97 325 299 220 134 115 117 128 119 109 105 100 96 92
142 142 147 158 162 166 169 169 168 168 166 162 159 155 151 144 141 137 131 125 117 109 101 92 86 87 94 101 103 118 292 310 333 121 115 112 123 123 118 117 111 103 97
148 150 158 162 168 172 175 178 176 175 173 170 166 163 160 160 160 158 154 140 134 129 122 115 110 117 123 137 172 243 289 302 307 95 97 98 102 112 116 120 121 113 106
153 155 161 163 171 173 174 174 176 180 179 174 174 174 175 183 181 179 163 147 153 155 158 170 185 186 179 190 216 241 267 256 125 99 93 96 97 103 111 118 121 121 119
162 164 162 164 166 172 175 159 177 182 177 188 186 183 200 212 189 163 145 156 168 179 190 209 220 224 215 207 218 230 247 232 132 104 99 98 95 100 108 115 119 122 126
170 171 165 167 168 166 158 159 176 177 175 197 195 189 208 218 151 139 156 162 184 195 206 209 223 228 219 209 200 202 211 26 85 101 103 101 101 105 111 116 117 121 128
166 170 174 166 168 171 170 164 171 171 180 190 193 198 201 209 188 167 170 176 188 199 204 193 220 219 219 187 196 150 108 58 91 108 108 104 105 111 114 118 121 122 128
163 165 188 179 177 177 174 165 177 176 180 188 184 194 192 182 215 176 181 170 190 181 172 226 240 158 52 49 48 57 78 87 94 110 120 117 111 110 118 121 125 125 127
160 169 185 192 190 178 172 176 181 172 171 173 172 192 191 181 204 154 203 138 202 178 177 204 202 136 147 83 63 49 46 92 98 122 135 131 125 119 117 122 125 129 133
170 173 179 191 194 192 184 177 168 162 168 166 171 199 195 179 190 155 195 147 204 205 193 207 150 126 127 121 129 159 90 67 145 141 141 148 144 131 124 122 123 126 132
334 201 180 184 198 197 189 170 166 172 161 159 166 196 206 180 188 161 165 154 195 191 171 106 52 30 103 128 151 167 123 105 292 118 151 156 154 145 135 131 127 124 124
339 320 221 180 191 203 184 169 164 173 163 155 160 173 215 184 175 145 140 151 198 145 116 129 161 201 104 114 129 134 150 163 149 221 182 155 146 148 146 143 139 133 129
338 331 321 255 192 195 179 174 161 175 164 150 145 159 185 180 151 130 124 142 64 92 80 18 126 109 76 115 269 183 174 191 214 256 340 126 156 157 157 159 157 153 147
346 338 325 316 256 199 173 180 168 172 168 153 149 149 151 126 102 109 127 129 106 103 130 261 283 174 200 246 4 5 330 283 244 182 211 230 185 147 156 168 173 165 161
350 345 336 331 314 272 195 178 176 168 164 160 140 117 109 108 101 108 119 131 136 134 174 241 261 222 232 222 168 150 289 297 283 225 193 205 220 162 191 189 175 167 172
354 347 336 329 318 295 224 173 163 152 147 139 130 120 109 109 108 99 115 145 172 181 200 226 235 220 217 235 218 175 188 224 256 267 216 198 209 186 197 200 184 181 175
355 350 343 338 333 324 278 186 175 168 165 163 151 134 121 111 119 127 124 173 197 203 209 221 224 219 210 221 231 222 217 202 188 260 287 227 204 200 197 200 203 192 167
353 349 347 346 346 342 346 245 169 147 141 132 129 126 119 112 113 123 124 205 231 227 227 227 232 223 213 216 218 219 232 246 233 206 245 277 265 230 204 193 189 204 159
356 353 353 357 358 358 10 46 118 130 133 134 133 133 124 114 99 93 143 213 230 229 232 232 231 225 217 217 220 220 212 215 218 218 221 233 242 257 234 210 200 190 175
Height
1513 1515 1517 1519 1521 1523 1525 1527 1529 1530 1531 1533 1534 1535 1536 1537 1538 1539 1540 1541 1542 1542 1543 1544 1545 1546 1547 1548 1549 1549 1550 1551 1552 1552 1553 1553 1553 1553 1553 1553 1553 1553 1554
1512 1515 1518 1520 1522 1525 1527 1528 1530 1531 1532 1534 1535 1536 1537 1538 1539 1540 1541 1542 1543 1544 1544 1545 1546 1547 1548 1549 1549 1550 1551 1552 1553 1554 1554 1554 1555 1555 1554 1554 1554 1554 1554
1513 1516 1519 1521 1524 1526 1528 1529 1531 1532 1534 1535 1536 1537 1538 1539 1540 1541 1542 1543 1544 1544 1545 1546 1547 1547 1548 1549 1550 1551 1552 1553 1554 1555 1555 1555 1556 1556 1556 1555 1555 1555 1555
1514 1517 1520 1522 1525 1527 1529 1530 1532 1533 1534 1536 1537 1538 1539 1540 1541 1542 1543 1543 1544 1545 1546 1547 1547 1548 1549 1550 1551 1552 1553 1554 1555 1556 1556 1556 1557 1557 1557 1556 1556 1556 1556
1516 1519 1521 1524 1526 1528 1530 1531 1533 1534 1535 1536 1538 1539 1540 1540 1541 1542 1543 1544 1545 1546 1547 1547 1548 1549 1550 1551 1552 1553 1554 1555 1556 1557 1557 1557 1557 1558 1557 1557 1557 1557 1557
1518 1520 1522 1524 1527 1528 1530 1532 1533 1535 1536 1537 1538 1539 1540 1541 1542 1543 1544 1545 1545 1546 1547 1548 1549 1549 1550 1551 1552 1553 1555 1556 1557 1557 1558 1558 1558 1558 1558 1558 1559 1558 1558
1519 1521 1523 1525 1527 1529 1531 1532 1534 1535 1537 1538 1539 1540 1541 1542 1542 1543 1544 1545 1546 1547 1548 1549 1549 1550 1551 1552 1553 1554 1555 1556 1557 1558 1558 1558 1558 1559 1559 1559 1559 1559 1559
1520 1521 1524 1526 1528 1529 1531 1533 1534 1536 1537 1538 1539 1540 1541 1542 1543 1544 1545 1545 1546 1547 1548 1549 1550 1551 1551 1552 1553 1555 1556 1557 1558 1559 1558 1558 1558 1559 1559 1560 1560 1560 1560
1521 1522 1524 1526 1528 1530 1531 1533 1534 1536 1537 1538 1540 1541 1542 1542 1543 1544 1545 1546 1547 1548 1549 1550 1551 1551 1552 1553 1554 1555 1556 1557 1558 1559 1558 1558 1559 1559 1560 1560 1560 1561 1561
1522 1523 1525 1526 1528 1530 1531 1533 1534 1535 1537 1538 1540 1541 1542 1543 1544 1544 1545 1546 1547 1548 1549 1550 1551 1552 1553 1554 1555 1556 1557 1558 1559 1558 1558 1559 1559 1559 1560 1560 1561 1561 1561
1523 1524 1526 1527 1529 1530 1531 1533 1534 1535 1537 1538 1539 1541 1542 1543 1544 1545 1546 1547 1548 1549 1550 1551 1552 1553 1554 1555 1556 1557 1558 1558 1559 1558 1559 1559 1559 1559 1560 1560 1561 1561 1562
1523 1524 1525 1527 1529 1531 1532 1533 1534 1535 1536 1538 1539 1541 1542 1543 1545 1546 1546 1548 1549 1549 1550 1551 1553 1554 1555 1556 1557 1558 1558 1559 1559 1558 1559 1559 1559 1559 1560 1560 1561 1561 1562
1522 1524 1525 1526 1528 1530 1532 1532 1533 1535 1536 1537 1539 1541 1543 1545 1546 1547 1548 1548 1549 1549 1550 1552 1553 1554 1555 1556 1558 1559 1559 1560 1559 1558 1558 1558 1559 1559 1559 1560 1561 1561 1562
1520 1522 1525 1525 1527 1528 1530 1532 1533 1534 1535 1537 1538 1541 1543 1545 1547 1547 1547 1548 1549 1550 1551 1553 1554 1555 1556 1558 1559 1559 1559 1560 1559 1558 1558 1558 1558 1559 1559 1560 1560 1561 1562
1519 1521 1523 1525 1526 1527 1529 1530 1532 1533 1534 1536 1538 1540 1542 1544 1546 1547 1549 1549 1550 1551 1552 1554 1554 1556 1557 1558 1559 1559 1559 1560 1559 1558 1558 1558 1558 1558 1559 1559 1560 1561 1561
1517 1518 1521 1523 1525 1526 1527 1528 1530 1532 1533 1535 1537 1539 1541 1543 1544 1546 1548 1549 1551 1552 1553 1554 1555 1556 1557 1557 1558 1558 1559 1559 1559 1558 1558 1558 1558 1558 1558 1559 1559 1560 1561
1515 1516 1518 1520 1522 1524 1525 1527 1528 1530 1531 1533 1535 1537 1540 1541 1543 1545 1547 1547 1549 1551 1553 1553 1555 1556 1556 1557 1557 1558 1559 1559 1559 1558 1558 1558 1558 1558 1558 1559 1559 1560 1560
1514 1515 1515 1517 1519 1521 1523 1524 1526 1528 1530 1531 1533 1535 1538 1539 1541 1543 1545 1546 1548 1550 1551 1552 1553 1555 1556 1556 1557 1557 1558 1558 1559 1559 1558 1557 1557 1557 1558 1558 1558 1559 1559
1511 1512 1513 1514 1515 1517 1520 1522 1523 1525 1527 1529 1531 1533 1535 1537 1539 1540 1542 1544 1546 1548 1549 1551 1552 1554 1555 1555 1556 1557 1557 1558 1558 1558 1559 1558 1557 1557 1557 1557 1558 1558 1559
1510 1510 1510 1511 1512 1514 1516 1518 1519 1522 1523 1525 1527 1530 1532 1535 1536 1538 1539 1541 1544 1545 1547 1549 1550 1552 1553 1554 1555 1555 1556 1557 1557 1557 1558 1558 1557 1557 1556 1556 1557 1557 1558
1509 1508 1508 1508 1509 1510 1511 1514 1515 1517 1519 1521 1524 1526 1528 1531 1533 1535 1536 1538 1540 1542 1544 1546 1548 1549 1551 1552 1553 1553 1554 1555 1555 1556 1556 1557 1557 1557 1556 1556 1556 1556 1557
1508 1506 1505 1504 1505 1506 1506 1508 1510 1512 1515 1518 1520 1521 1524 1526 1529 1531 1532 1534 1537 1539 1541 1543 1545 1546 1548 1549 1550 1551 1551 1553 1553 1553 1554 1555 1555 1555 1555 1555 1555 1555 1555
1507 1505 1503 1501 1501 1501 1502 1503 1505 1507 1510 1513 1514 1516 1518 1521 1524 1526 1528 1531 1533 1535 1537 1539 1541 1542 1544 1545 1547 1548 1548 1548 1549 1550 1551 1552 1553 1553 1554 1554 1555 1554 1554
1506 1503 1500 1498 1497 1496 1497 1499 1500 1500 1503 1506 1509 1511 1514 1517 1519 1522 1525 1527 1529 1531 1533 1535 1537 1538 1540 1541 1543 1544 1546 1546 1548 1547 1549 1549 1550 1551 1551 1552 1553 1554 1553
1505 1501 1498 1495 1493 1492 1493 1494 1495 1497 1498 1501 1504 1507 1510 1512 1516 1518 1520 1523 1525 1527 1530 1532 1533 1534 1535 1537 1539 1540 1542 1543 1544 1545 1546 1547 1547 1548 1549 1549 1550 1551 1552
1503 1500 1497 1494 1492 1490 1489 1490 1491 1493 1495 1497 1499 1502 1505 1508 1512 1514 1516 1519 1522 1524 1526 1528 1529 1531 1532 1533 1534 1536 1537 1539 1539 1541 1542 1543 1544 1545 1545 1546 1547 1548 1549